Simultaneous Nadir Overpasses (SNOs) Predictions

Prediction of SNOs between NOAA-19 and METOP-C Satellite Orbit:

Table of predicted SNOs for the next 14.0 days since TLE Epoch: 5/8/2020
Index Date (NOAA-19) Time (NOAA-19) Lat,Lon (NOAA-19) SZA (NOAA-19 ) Date (METOP-C) Time (METOP-C) Lat,Lon (METOP-C) SZA (METOP-C ) Distance(km) Time Diff (sec)
1 05/14/2020 10:16:59 -79.95,-132.34 118.05 05/14/2020 10:18:07 -79.97,-132.28 118.01 2.03 68
2 05/14/2020 11:08:05 79.95, 34.88 61.94 05/14/2020 11:08:48 79.94, 34.81 61.94 1.80 43
3 05/14/2020 11:58:59 -79.94,-157.64 118.07 05/14/2020 11:59:29 -79.96,-157.73 118.05 2.66 30
4 05/14/2020 12:50:05 79.94, 9.57 61.93 05/14/2020 12:50:09 79.96, 9.65 61.95 2.83 4
5 05/14/2020 13:41:00 -79.95, 176.74 118.09 05/14/2020 13:40:51 -79.94, 176.81 118.09 1.36 9
6 05/14/2020 14:32:05 79.92, -15.74 61.91 05/14/2020 14:31:31 79.95, -15.81 61.92 3.15 34
7 05/14/2020 15:23:00 -79.93, 151.43 118.10 05/14/2020 15:22:13 -79.93, 151.35 118.12 1.60 47




NCC Satellite Simultaneous Nadir Overpasses (SNOs) Prediction Service
